Track NAVSTAR 38 (USA 126) now! NAVSTAR 38 (USA 126) is classified as:
1 23953U 96041A 24325.41354894 -.00000051 00000-0 00000-0 0 9993 2 23953 55.5075 66.4944 0060394 101.1701 281.5361 1.88695643203963